[[{"header":{"parameterUnit":"m.s-1","parameterCategory":1,"la1":30.2991,"la2":30.254,"lo1":-89.0895,"lo2":-89.0444,"dy":0.0017,"dx":0.0017,"nx":28,"ny":28,"refTime":"2025-12-11T03:00:00:Z","depth":0,"parameterNumber":2,"parameterNumberName":"U-component_of_WINDS"},"data":[0,0,0,0,0,0,0,0,0,0,0,0,0,0,0,0,0,0,0,0,0,0,0,0,0,0,0,0,0,0,0,0,0,0,0,0,0,0,0,0,0,0,0,0,0,0,0,0,0,0,0,0,0,0,0,0,0,0,1.1837,1.1838,0,1.1902,1.1903,1.1904,1.1886,1.1884,1.1883,1.1882,1.1946,1.1949,1.1952,0,0,0,0,0,0,0,0,0,0,0,0,0,1.1696,1.1699,1.1837,1.1838,1.1839,1.1902,1.1903,1.1904,1.1886,1.1884,1.1883,1.1881,1.1945,1.1949,1.1952,0,0,0,0,0,0,0,0,0,0,0,0,0,1.1759,1.17,1.1837,1.1838,1.1838,1.1902,1.1903,1.1904,1.1886,1.1884,1.1882,1.188,1.1944,1.1948,1.1953,1.202,0,0,1.1966,1.1968,0,0,0,0,0,0,0,0,1.1755,1.1764,1.1837,1.1838,1.1839,1.1884,1.1877,1.1943,1.1887,1.1868,1.1882,1.188,1.1927,1.1933,1.1949,1.2023,1.2025,1.1967,1.1969,1.1971,1.1972,0,0,0,0,0,0,0,1.1751,1.1761,1.1863,1.1838,1.1839,1.1834,1.1841,1.1889,1.1908,1.1869,1.1868,1.1876,1.1927,1.1945,1.1951,1.2026,1.1967,1.197,1.1973,1.1975,1.2158,1.216,0,0,0,0,0,0,1.1746,1.1758,1.1861,1.1865,1.1791,1.1838,1.1846,1.1871,1.1907,1.1911,1.1878,1.1875,1.1938,1.1945,1.1953,1.2033,1.1971,1.1975,1.1978,1.2156,1.2158,1.2161,0,0,0,0,0,0,1.1743,1.1756,1.1858,1.1811,1.1824,1.1843,1.1872,1.1874,1.1891,1.1914,1.1917,1.1893,1.1937,1.1946,1.2003,1.2035,1.1977,1.1981,1.2153,1.2156,1.2159,1.2193,0,0,0,0,0,0,1.1739,1.1755,1.178,1.1812,1.1826,1.1908,1.1874,1.1876,1.1899,1.1896,1.1928,1.1932,1.1936,1.1997,1.2008,1.204,1.1985,1.215,1.2154,1.2158,1.2189,1.2197,1.2204,0,0,0,0,0,1.1734,1.1787,1.1782,1.1794,1.1859,1.191,1.1918,1.1923,1.1902,1.1928,1.1942,1.1931,1.203,1.2003,1.2015,1.2049,1.2148,1.2153,1.2158,1.2186,1.2196,1.2204,0,0,0,0,0,0,1.1757,1.1791,1.1785,1.185,1.1878,1.1907,1.1939,1.1933,1.1966,1.1962,1.1966,1.1973,1.2031,1.2046,1.2015,1.2115,1.2086,1.2094,1.2103,1.2113,1.212,1.2114,1.1988,0,0,0,0,0,1.177,1.1809,1.1836,1.1891,1.1905,1.192,1.1942,1.1944,1.1972,1.1983,1.2002,1.2029,1.2066,1.2091,1.2126,1.2192,1.2199,1.2222,1.2229,1.2235,1.2241,1.2277,1.2287,1.2177,1.2177,1.2177,0,0,1.1796,1.182,1.1844,1.1896,1.1917,1.1957,1.193,1.1973,1.2002,1.1989,1.2044,1.2059,1.209,1.2151,1.2179,1.2165,1.2273,1.2242,1.2246,1.2249,1.2283,1.2293,1.2303,1.218,1.218,1.2179,0,0,1.1864,1.1886,1.1934,1.1956,1.1989,1.1999,1.2011,1.2042,1.2052,1.2107,1.2098,1.2133,1.2198,1.222,1.224,1.2318,1.2308,1.233,1.2367,1.2402,1.2411,1.2419,1.2446,1.2455,1.2336,1.2336,1.2336,0,1.1892,1.1952,1.1958,1.2003,1.2026,1.2018,1.2065,1.2087,1.213,1.2146,1.213,1.2211,1.2231,1.2298,1.2317,1.2334,1.2346,1.2325,1.2409,1.2417,1.2424,1.245,1.246,1.2338,1.2338,1.2338,1.2338,0,1.1984,1.2027,1.2061,1.2104,1.2131,1.2177,1.2189,1.2216,1.2216,1.2228,1.2284,1.2309,1.2349,1.2366,1.2365,1.2432,1.2423,1.2408,1.2378,1.2437,1.2461,1.2471,1.2342,1.2341,1.234,1.234,0,0,1.2066,1.2113,1.2125,1.2145,1.2182,1.2214,1.226,1.2301,1.2323,1.2354,1.2391,1.2447,1.2434,1.2457,1.246,1.2491,1.255,1.2472,1.2473,1.2485,1.2625,1.2634,1.2646,1.2546,1.2547,1.2549,1.2622,0,1.2136,1.2216,1.2224,1.2297,1.2335,1.2329,1.2369,1.2396,1.2409,1.2443,1.2458,1.2496,1.2477,1.2491,1.2521,1.2537,1.2578,1.2532,1.258,1.2581,1.257,1.2659,1.2668,1.2736,1.2632,1.2633,1.2635,0,1.2227,1.2261,1.2338,1.237,1.2387,1.2422,1.246,1.2494,1.2525,1.2532,1.2558,1.2557,1.2604,1.2575,1.2639,1.2607,1.2628,1.2638,1.2641,1.2644,1.261,1.2662,1.2758,1.2767,1.265,1.2649,1.2647,0,1.2277,1.2342,1.2396,1.2414,1.2453,1.2478,1.2496,1.2525,1.2549,1.2583,1.2598,1.2637,1.2657,1.2687,1.2696,1.2674,1.276,1.2732,1.2767,1.2766,1.2783,1.2781,1.2881,1.28,1.2799,1.2799,1.2799,0,1.2353,1.2399,1.2419,1.2452,1.2505,1.2514,1.2565,1.2581,1.2608,1.2643,1.2641,1.2675,1.2686,1.2722,1.273,1.2782,1.2791,1.2798,1.2799,1.2797,1.2796,1.2809,1.2804,1.2802,1.2801,1.2801,1.28,0,1.2416,1.2431,1.249,1.2524,1.2533,1.257,1.2598,1.263,1.2644,1.2689,1.27,1.2721,1.2763,1.2776,1.2826,1.2832,1.2892,1.289,1.2882,1.2881,1.2915,1.2911,1.3025,1.304,1.295,1.2951,1.2952,0,1.2462,1.2498,1.2536,1.256,1.2579,1.2618,1.2643,1.2655,1.2681,1.2719,1.2747,1.2789,1.2822,1.289,1.2909,1.2947,1.2945,1.2983,1.2951,1.2948,1.2944,1.2941,1.2944,1.2988,1.2989,1.2989,1.299,0,1.2542,1.2548,1.2585,1.2625,1.2655,1.2687,1.2717,1.2737,1.2753,1.2783,1.2826,1.2853,1.2905,1.2946,1.2986,1.3004,1.2999,1.3001,1.301,1.3008,1.3001,1.3004,1.2896,1.2997,1.2996,1.2996,1.2996,1.2995,1.2597,1.2628,1.266,1.2701,1.2726,1.2755,1.2787,1.2805,1.2842,1.2886,1.289,1.2937,1.2968,1.3021,1.3041,1.3078,1.3067,1.3082,1.3085,1.3088,1.309,1.2997,1.3085,1.3085,1.3085,1.3085,1.3085,0,1.2675,1.2696,1.2734,1.2777,1.281,1.2805,1.2839,1.2866,1.2908,1.2938,1.2972,1.3022,1.3063,1.3086,1.3127,1.3152,1.3151,1.3162,1.3159,1.3163,1.3098,1.3085,1.3162,1.3162,1.3162,1.3162,1.3162,1.3162,1.2719,1.2773,1.2783,1.2849,1.287,1.2916,1.2936,1.2963,1.2987,1.3043,1.3077,1.3093,1.312,1.3163,1.32,1.3206,1.3221,1.3233,1.3237,1.3176,1.3168,1.316,1.3147,1.3236,1.3236,1.3299,1.33,1.33]},{"header":{"parameterUnit":"m.s-1","parameterCategory":1,"la1":30.2991,"la2":30.254,"lo1":-89.0895,"lo2":-89.0444,"dy":0.0017,"dx":0.0017,"nx":28,"ny":28,"refTime":"2025-12-11T03:00:00:Z","depth":0,"parameterNumber":3,"parameterNumberName":"V-component_of_WINDS"},"data":[0,0,0,0,0,0,0,0,0,0,0,0,0,0,0,0,0,0,0,0,0,0,0,0,0,0,0,0,0,0,0,0,0,0,0,0,0,0,0,0,0,0,0,0,0,0,0,0,0,0,0,0,0,0,0,0,0,0,1.7442,1.7445,0,1.7696,1.7699,1.7702,1.777,1.7768,1.7767,1.7765,1.8028,1.8036,1.8044,0,0,0,0,0,0,0,0,0,0,0,0,0,1.7017,1.7025,1.7442,1.7445,1.7449,1.7696,1.7699,1.7703,1.777,1.7768,1.7766,1.7765,1.8025,1.8035,1.8045,0,0,0,0,0,0,0,0,0,0,0,0,0,1.723,1.7027,1.7442,1.7512,1.7521,1.7695,1.77,1.7704,1.777,1.7768,1.7766,1.7764,1.8021,1.8034,1.8046,1.817,0,0,1.8085,1.809,0,0,0,0,0,0,0,0,1.7218,1.7245,1.7498,1.7507,1.7517,1.7699,1.7646,1.786,1.7771,1.7676,1.7765,1.7763,1.792,1.7941,1.7994,1.8182,1.8193,1.8086,1.8093,1.8099,1.8102,0,0,0,0,0,0,0,1.7203,1.7235,1.7543,1.7502,1.7514,1.7531,1.7559,1.7687,1.7808,1.7684,1.7689,1.7718,1.7925,1.7981,1.8,1.8197,1.8085,1.8097,1.8104,1.8109,1.8501,1.8503,0,0,0,0,0,0,1.7176,1.7222,1.7535,1.755,1.7359,1.7541,1.7572,1.7643,1.7807,1.7829,1.772,1.7721,1.7961,1.7986,1.801,1.8167,1.8099,1.8111,1.8118,1.8498,1.8501,1.8504,0,0,0,0,0,0,1.7166,1.7203,1.7525,1.7388,1.743,1.7551,1.763,1.7649,1.7706,1.7834,1.7856,1.7755,1.796,1.7992,1.813,1.8177,1.8116,1.8128,1.8495,1.8499,1.8503,1.848,0,0,0,0,0,0,1.7154,1.7199,1.7247,1.7388,1.7437,1.7639,1.7633,1.7656,1.7727,1.773,1.7873,1.7894,1.7961,1.811,1.8142,1.8193,1.8138,1.8491,1.8496,1.8501,1.8477,1.8483,1.8487,0,0,0,0,0,1.7138,1.7231,1.7249,1.7286,1.7499,1.7642,1.767,1.7744,1.7731,1.778,1.7862,1.789,1.8166,1.8124,1.816,1.8215,1.8488,1.8495,1.8501,1.8474,1.8481,1.8487,0,0,0,0,0,0,1.7093,1.725,1.7273,1.7413,1.7513,1.7653,1.7718,1.7749,1.7856,1.7854,1.7942,1.7974,1.8106,1.8174,1.8125,1.8344,1.8327,1.8341,1.8295,1.8302,1.8308,1.8289,1.8148,0,0,0,0,0,1.7098,1.72,1.7333,1.7444,1.7493,1.7597,1.7662,1.771,1.7818,1.7861,1.7953,1.8057,1.8168,1.8239,1.8347,1.8486,1.8519,1.8542,1.8547,1.8551,1.8563,1.8643,1.8655,1.8525,1.8525,1.8525,0,0,1.7112,1.7211,1.727,1.7438,1.7521,1.7625,1.7632,1.7742,1.7821,1.7878,1.8014,1.8085,1.8207,1.8346,1.8412,1.8407,1.8605,1.8559,1.8561,1.8571,1.865,1.8662,1.8673,1.853,1.8529,1.8528,0,0,1.7192,1.7276,1.7378,1.7461,1.7587,1.7655,1.7679,1.7815,1.7864,1.8001,1.8046,1.8141,1.8329,1.8415,1.8483,1.8593,1.8623,1.8626,1.8655,1.8731,1.8742,1.8751,1.8792,1.8805,1.8637,1.8637,1.8637,0,1.7194,1.7352,1.7427,1.7535,1.7608,1.7663,1.7768,1.7845,1.8,1.8049,1.8041,1.8279,1.8365,1.8525,1.8552,1.8605,1.8636,1.8611,1.8734,1.8744,1.8754,1.8794,1.8809,1.8636,1.8636,1.8636,1.8636,0,1.7348,1.7457,1.7525,1.7673,1.7753,1.7858,1.7951,1.8023,1.8064,1.8132,1.8272,1.8377,1.8508,1.8549,1.859,1.8716,1.8709,1.8716,1.8702,1.8765,1.8804,1.882,1.8636,1.8636,1.8636,1.8636,0,0,1.7408,1.7594,1.7618,1.7686,1.7828,1.7915,1.8023,1.8151,1.8211,1.8316,1.841,1.8567,1.8575,1.8652,1.8703,1.877,1.8853,1.877,1.8774,1.8783,1.8999,1.8994,1.901,1.8873,1.8876,1.8878,1.8989,0,1.7505,1.7701,1.7771,1.7932,1.8034,1.8088,1.8182,1.828,1.8347,1.8444,1.8519,1.863,1.863,1.8677,1.8746,1.8828,1.8898,1.8821,1.8962,1.8966,1.8932,1.903,1.9026,1.9125,1.9005,1.9007,1.9009,0,1.7646,1.7752,1.7923,1.8053,1.8098,1.8182,1.8305,1.8396,1.8509,1.8553,1.8638,1.8685,1.8802,1.8778,1.8941,1.8887,1.8949,1.8997,1.9003,1.9021,1.8993,1.9052,1.9158,1.9174,1.9034,1.9032,1.903,0,1.7674,1.7859,1.7985,1.8041,1.8195,1.8253,1.832,1.843,1.8503,1.861,1.8658,1.8777,1.8843,1.8935,1.9013,1.8988,1.9168,1.9151,1.921,1.9208,1.9247,1.9244,1.9366,1.9283,1.9283,1.9283,1.9282,0,1.7777,1.788,1.7999,1.8077,1.8194,1.8274,1.8388,1.8459,1.8556,1.8649,1.8702,1.8789,1.8886,1.8985,1.9047,1.9172,1.9201,1.9241,1.9257,1.9238,1.9233,1.9281,1.9276,1.9287,1.9286,1.9285,1.9284,0,1.7828,1.7912,1.8054,1.8188,1.8224,1.8304,1.8419,1.8498,1.8566,1.8684,1.8716,1.8824,1.8944,1.903,1.9185,1.9226,1.9362,1.9376,1.9323,1.9332,1.9386,1.938,1.9545,1.9571,1.9468,1.9469,1.947,0,1.7889,1.7969,1.8111,1.8177,1.8244,1.8349,1.8423,1.8505,1.8579,1.8713,1.8776,1.8898,1.9002,1.919,1.9284,1.9402,1.9421,1.9471,1.944,1.9418,1.9424,1.9419,1.9428,1.9476,1.9476,1.9477,1.9477,0,1.7989,1.8027,1.813,1.8248,1.8334,1.8432,1.853,1.8581,1.868,1.8762,1.8884,1.8964,1.9122,1.9244,1.9371,1.9442,1.9477,1.9486,1.9506,1.9489,1.9455,1.9476,1.9338,1.9483,1.9482,1.9482,1.9481,1.9481,1.8049,1.8123,1.8234,1.8348,1.843,1.852,1.86,1.8679,1.8782,1.8916,1.8958,1.9085,1.9196,1.9371,1.9443,1.9545,1.9543,1.9571,1.9579,1.9585,1.9585,1.9437,1.9568,1.9568,1.9568,1.9568,1.9568,0,1.8153,1.8227,1.833,1.8465,1.8555,1.8578,1.8688,1.8762,1.8873,1.8973,1.9073,1.9214,1.9333,1.9435,1.9558,1.962,1.9639,1.965,1.9647,1.9663,1.9579,1.955,1.9632,1.9632,1.9632,1.9632,1.9632,1.9632,1.8217,1.8344,1.8394,1.8562,1.8636,1.8761,1.8822,1.8906,1.8986,1.9141,1.9239,1.9304,1.9406,1.9537,1.9647,1.9674,1.9718,1.9725,1.9756,1.9676,1.9669,1.9661,1.9635,1.9733,1.9733,1.9832,1.9833,1.9833]}]]